FW6992 Weather Reports


Display with metric or nautical units.
time (UTC)temp
F
wind
direction
speed
MPH
gust
MPH
rain 1hr
in
rain 24hr
in
rain mn
in
humidity
%
barometer
mb
20260509062953 55 261 0.0 0.0 0.00 0.00 0.00 53 1014.1
20260509062450 55 207 0.0 0.0 0.00 0.00 0.00 52 1013.7
20260509061948 55 330 0.0 0.0 0.00 0.00 0.00 53 1013.7
20260509061445 55 330 0.0 1.0 0.00 0.00 0.00 53 1013.9
20260509060942 56 81 0.0 1.0 0.00 0.00 0.00 51 1014.0
20260509060440 56 223 0.0 1.0 0.00 0.00 0.00 52 1014.3
20260509055935 56 191 0.0 1.0 0.00 0.00 0.00 52 1014.2
20260509055430 56 44 1.0 1.0 0.00 0.00 0.00 51 1014.3
20260509054927 57 113 2.0 2.0 0.00 0.00 0.00 50 1014.3
20260509054424 57 256 0.0 2.0 0.00 0.00 0.00 49 1014.1
20260509053922 57 261 0.0 6.0 0.00 0.00 0.00 49 1014.3
20260509053420 56 105 1.0 1.0 0.00 0.00 0.00 50 1013.8
20260509052917 56 84 0.0 0.0 0.00 0.00 0.00 49 1013.9
20260509052414 56 139 0.0 0.0 0.00 0.00 0.00 50 1014.2
20260509051913 56 217 2.0 2.0 0.00 0.00 0.00 50 1014.2
20260509051410 56 347 0.0 1.0 0.00 0.00 0.00 51 1014.1
20260509050907 56 336 0.0 2.0 0.00 0.00 0.00 51 1014.2
20260509050404 56 35 0.0 1.0 0.00 0.00 0.00 50 1014.2
20260509045900 56 94 0.0 0.0 0.00 0.00 0.00 51 1013.9
20260509045357 56 134 0.0 0.0 0.00 0.00 0.00 51 1014.1
20260509044854 56 92 1.0 2.0 0.00 0.00 0.00 50 1014.1
20260509044352 56 53 0.0 1.0 0.00 0.00 0.00 51 1014.0
20260509043849 56 251 0.0 0.0 0.00 0.00 0.00 49 1013.9
20260509043344 57 58 0.0 0.0 0.00 0.00 0.00 49 1013.9
20260509042840 57 148 1.0 1.0 0.00 0.00 0.00 48 1014.1
20260509042337 58 251 0.0 0.0 0.00 0.00 0.00 48 1014.1
20260509041834 58 293 1.0 3.0 0.00 0.00 0.00 46 1013.9
20260509041331 58 342 0.0 1.0 0.00 0.00 0.00 48 1013.9
20260509040829 58 245 1.0 1.0 0.00 0.00 0.00 49 1013.9
20260509040326 58 321 0.0 1.0 0.00 0.00 0.00 48 1014.1
20260509035823 59 316 2.0 3.0 0.00 0.00 0.00 46 1013.9
20260509035320 59 0 1.0 2.0 0.00 0.00 0.00 45 1014.1
20260509034816 59 286 1.0 3.0 0.00 0.00 0.00 45 1014.3
20260509034314 59 262 1.0 3.0 0.00 0.00 0.00 45 1014.1
20260509033811 59 69 2.0 3.0 0.00 0.00 0.00 45 1014.2
20260509033308 59 10 0.0 2.0 0.00 0.00 0.00 45 1014.4
20260509032805 59 233 1.0 3.0 0.00 0.00 0.00 45 1014.2
20260509032306 59 276 0.0 3.0 0.00 0.00 0.00 45 1014.4
20260509031800 59 327 0.0 0.0 0.00 0.00 0.00 46 1014.4
20260509031257 59 293 1.0 5.0 0.00 0.00 0.00 45 1014.5
20260509030754 59 238 0.0 0.0 0.00 0.00 0.00 48 1014.3
20260509030252 59 209 1.0 3.0 0.00 0.00 0.00 47 1014.3
20260509025749 59 293 0.0 3.0 0.00 0.00 0.00 45 1014.5
20260509025244 60 343 0.0 1.0 0.00 0.00 0.00 46 1014.3
20260509024740 60 346 0.0 2.0 0.00 0.00 0.00 45 1014.6
20260509024236 60 340 2.0 2.0 0.00 0.00 0.00 45 1014.3
20260509023734 60 315 3.0 4.0 0.00 0.00 0.00 45 1014.3
20260509023230 59 347 0.0 2.0 0.00 0.00 0.00 47 1014.3
20260509022726 59 240 1.0 2.0 0.00 0.00 0.00 46 1014.4
20260509022225 60 70 0.0 0.0 0.00 0.00 0.00 46 1014.5
20260509021721 60 238 0.0 2.0 0.00 0.00 0.00 46 1014.4
20260509021218 60 324 0.0 2.0 0.00 0.00 0.00 44 1014.3
20260509020716 60 336 0.0 3.0 0.00 0.00 0.00 44 1014.4
20260509020213 60 325 0.0 2.0 0.00 0.00 0.00 46 1014.4
20260509015711 60 201 0.0 0.0 0.00 0.00 0.00 45 1014.4
20260509015209 60 337 0.0 1.0 0.00 0.00 0.00 46 1014.4
20260509014705 60 21 0.0 1.0 0.00 0.00 0.00 45 1013.9
20260509014202 60 300 0.0 2.0 0.00 0.00 0.00 46 1014.0
20260509013659 60 60 1.0 2.0 0.00 0.00 0.00 44 1014.0
20260509013154 60 290 0.0 2.0 0.00 0.00 0.00 45 1013.8
20260509012651 61 330 0.0 1.0 0.00 0.00 0.00 44 1013.8
20260509012148 61 347 0.0 0.0 0.00 0.00 0.00 43 1013.8
20260509011646 61 323 1.0 1.0 0.00 0.00 0.00 42 1013.8
20260509011143 61 251 0.0 1.0 0.00 0.00 0.00 43 1013.7
20260509010641 61 347 0.0 1.0 0.00 0.00 0.00 42 1013.6
20260509010137 62 214 0.0 1.0 0.00 0.00 0.00 43 1013.8
20260509005635 62 70 0.0 1.0 0.00 0.00 0.00 41 1013.6
20260509005131 62 347 0.0 1.0 0.00 0.00 0.00 40 1013.7
20260509004627 62 251 0.0 1.0 0.00 0.00 0.00 40 1013.7
20260509004124 63 6 0.0 1.0 0.00 0.00 0.00 41 1013.6
20260509003623 63 290 0.0 2.0 0.00 0.00 0.00 41 1013.9
20260509003119 63 341 0.0 1.0 0.00 0.00 0.00 39 1013.7
20260509002617 64 327 0.0 1.0 0.00 0.00 0.00 39 1013.9
20260509002114 64 347 0.0 1.0 0.00 0.00 0.00 39 1013.8
20260509001612 64 58 0.0 1.0 0.00 0.00 0.00 39 1013.7
20260509001107 65 8 1.0 2.0 0.00 0.00 0.00 38 1013.7
20260509000606 65 50 0.0 1.0 0.00 0.00 0.00 36 1013.8
20260508235559 66 273 0.0 1.0 0.00 0.00 0.00 36 1013.8
20260508235055 66 295 0.0 3.0 0.00 0.00 0.00 36 1013.6
20260508234553 66 326 1.0 3.0 0.00 0.00 0.00 34 1013.5
20260508234049 67 305 2.0 4.0 0.00 0.00 0.00 34 1013.5
20260508233549 67 7 2.0 4.0 0.00 0.00 0.00 34 1013.5
20260508233046 67 116 1.0 2.0 0.00 0.00 0.00 36 1013.3
20260508232543 67 71 0.0 1.0 0.00 0.00 0.00 35 1013.3
20260508232040 67 321 1.0 1.0 0.00 0.00 0.00 35 1013.1
20260508231538 68 54 0.0 2.0 0.00 0.00 0.00 35 1013.0
20260508231034 68 231 1.0 3.0 0.00 0.00 0.00 35 1013.1
20260508230531 68 327 3.0 3.0 0.00 0.00 0.00 33 1012.9
20260508230028 68 190 1.0 2.0 0.00 0.00 0.00 35 1013.0
20260508225525 68 335 2.0 2.0 0.00 0.00 0.00 33 1012.8
20260508225022 68 253 0.0 1.0 0.00 0.00 0.00 34 1013.1
20260508224519 68 325 0.0 2.0 0.00 0.00 0.00 32 1013.1
20260508224017 68 176 0.0 2.0 0.00 0.00 0.00 35 1013.1
20260508223514 69 150 0.0 1.0 0.00 0.00 0.00 35 1013.0
20260508223012 69 237 0.0 3.0 0.00 0.00 0.00 34 1012.8
20260508222509 69 274 0.0 4.0 0.00 0.00 0.00 32 1012.8
20260508222005 69 237 0.0 3.0 0.00 0.00 0.00 32 1012.9
20260508221502 69 294 2.0 2.0 0.00 0.00 0.00 34 1012.9
20260508220958 69 342 2.0 3.0 0.00 0.00 0.00 32 1013.1
20260508220454 69 131 0.0 4.0 0.00 0.00 0.00 33 1013.2
20260508215950 69 330 0.0 3.0 0.00 0.00 0.00 32 1013.1
20260508215448 69 215 1.0 3.0 0.00 0.00 0.00 35 1013.0
20260508214944 69 348 2.0 3.0 0.00 0.00 0.00 35 1013.3
20260508214442 69 278 0.0 3.0 0.00 0.00 0.00 35 1013.3
20260508213938 69 233 0.0 3.0 0.00 0.00 0.00 34 1013.1
20260508213435 70 166 2.0 3.0 0.00 0.00 0.00 34 1013.3
20260508212931 70 320 1.0 4.0 0.00 0.00 0.00 32 1013.3
20260508212428 69 276 2.0 3.0 0.00 0.00 0.00 32 1013.3
20260508211924 69 347 2.0 2.0 0.00 0.00 0.00 32 1013.3
20260508211419 69 129 1.0 3.0 0.00 0.00 0.00 34 1013.6
20260508210917 69 317 0.0 5.0 0.00 0.00 0.00 34 1013.5
20260508210413 69 298 2.0 3.0 0.00 0.00 0.00 31 1013.5
20260508205909 71 332 1.0 3.0 0.00 0.00 0.00 30 1013.5
20260508205407 71 330 0.0 4.0 0.00 0.00 0.00 29 1013.5
20260508204903 72 304 0.0 3.0 0.00 0.00 0.00 29 1013.5
20260508204400 73 292 1.0 3.0 0.00 0.00 0.00 27 1013.4
20260508203855 75 314 4.0 6.0 0.00 0.00 0.00 26 1013.7
20260508203352 75 324 0.0 4.0 0.00 0.00 0.00 28 1013.6
20260508202848 74 133 0.0 4.0 0.00 0.00 0.00 29 1013.5
20260508202345 75 159 2.0 2.0 0.00 0.00 0.00 29 1013.6
20260508201842 74 4 0.0 5.0 0.00 0.00 0.00 28 1013.8
20260508201339 75 142 2.0 3.0 0.00 0.00 0.00 29 1013.9
20260508200836 74 312 2.0 5.0 0.00 0.00 0.00 27 1013.7
20260508200332 77 109 3.0 4.0 0.00 0.00 0.00 27 1013.7
20260508195828 75 163 2.0 2.0 0.00 0.00 0.00 27 1013.7
20260508195325 76 351 2.0 5.0 0.00 0.00 0.00 27 1014.0
20260508194821 75 173 2.0 6.0 0.00 0.00 0.00 28 1013.8
20260508194319 74 113 1.0 3.0 0.00 0.00 0.00 27 1013.6
20260508193810 73 143 0.0 5.0 0.00 0.00 0.00 30 1014.1
20260508193306 74 2 0.0 4.0 0.00 0.00 0.00 29 1014.2
20260508192803 75 161 0.0 4.0 0.00 0.00 0.00 30 1014.1
20260508192259 76 259 2.0 3.0 0.00 0.00 0.00 29 1014.4
20260508191757 76 223 2.0 2.0 0.00 0.00 0.00 28 1014.3
20260508191254 76 298 2.0 2.0 0.00 0.00 0.00 27 1014.3
20260508190751 74 149 1.0 4.0 0.00 0.00 0.00 28 1014.7
20260508190247 73 90 2.0 2.0 0.00 0.00 0.00 30 1014.5
20260508185744 73 253 2.0 3.0 0.00 0.00 0.00 29 1014.7
20260508185241 75 228 2.0 3.0 0.00 0.00 0.00 28 1014.7
20260508184738 75 276 1.0 3.0 0.00 0.00 0.00 28 1014.7
20260508184236 75 224 0.0 4.0 0.00 0.00 0.00 26 1014.6
20260508183732 74 114 3.0 5.0 0.00 0.00 0.00 29 1015.2
20260508183228 74 102 2.0 3.0 0.00 0.00 0.00 29 1015.0
20260508182724 75 128 2.0 3.0 0.00 0.00 0.00 30 1015.1
20260508182221 74 305 3.0 4.0 0.00 0.00 0.00 27 1015.1
20260508181717 73 252 0.0 3.0 0.00 0.00 0.00 28 1015.2
20260508181215 75 304 0.0 3.0 0.00 0.00 0.00 29 1015.4
20260508180711 74 310 2.0 3.0 0.00 0.00 0.00 28 1015.3
20260508180208 72 327 0.0 3.0 0.00 0.00 0.00 29 1015.6
20260508175704 72 185 2.0 6.0 0.00 0.00 0.00 33 1015.6
20260508175201 73 318 3.0 3.0 0.00 0.00 0.00 27 1015.7
20260508174659 74 283 1.0 2.0 0.00 0.00 0.00 33 1015.8
20260508174155 72 103 1.0 4.0 0.00 0.00 0.00 30 1015.9
20260508173652 71 6 2.0 5.0 0.00 0.00 0.00 32 1016.1
20260508173148 71 238 1.0 3.0 0.00 0.00 0.00 35 1015.9
20260508172646 70 321 3.0 4.0 0.00 0.00 0.00 32 1016.1
20260508172142 70 324 0.0 2.0 0.00 0.00 0.00 26 1016.2
20260508171639 69 307 2.0 3.0 0.00 0.00 0.00 34 1016.1
20260508171135 67 149 2.0 3.0 0.00 0.00 0.00 35 1015.9
20260508170632 68 89 3.0 5.0 0.00 0.00 0.00 33 1016.1
20260508170130 70 101 2.0 4.0 0.00 0.00 0.00 30 1016.4
20260508165627 70 97 0.0 4.0 0.00 0.00 0.00 30 1016.2
20260508165124 70 309 2.0 4.0 0.00 0.00 0.00 28 1016.4
20260508164620 70 62 0.0 3.0 0.00 0.00 0.00 29 1016.4
20260508164117 69 88 2.0 3.0 0.00 0.00 0.00 27 1016.4
20260508163615 70 195 0.0 3.0 0.00 0.00 0.00 31 1016.5
20260508163111 70 226 1.0 2.0 0.00 0.00 0.00 32 1016.7
20260508162608 70 58 1.0 3.0 0.00 0.00 0.00 29 1016.9
20260508162105 69 152 0.0 2.0 0.00 0.00 0.00 35 1016.9
20260508161602 69 106 1.0 4.0 0.00 0.00 0.00 36 1017.2
20260508161059 68 120 0.0 4.0 0.00 0.00 0.00 34 1017.4
20260508160558 68 293 0.0 3.0 0.00 0.00 0.00 29 1017.3
20260508160054 68 123 2.0 4.0 0.00 0.00 0.00 28 1017.4
20260508155552 68 257 2.0 4.0 0.00 0.00 0.00 30 1017.5
20260508155048 68 164 0.0 1.0 0.00 0.00 0.00 31 1017.5
20260508154545 69 16 2.0 2.0 0.00 0.00 0.00 29 1017.5
20260508154042 68 6 0.0 3.0 0.00 0.00 0.00 28 1017.6
20260508153539 67 118 2.0 4.0 0.00 0.00 0.00 29 1017.6
20260508153035 66 203 0.0 4.0 0.00 0.00 0.00 33 1017.5
20260508152533 67 245 0.0 4.0 0.00 0.00 0.00 31 1017.5
20260508152028 67 173 0.0 2.0 0.00 0.00 0.00 32 1017.6
20260508151525 65 304 2.0 2.0 0.00 0.00 0.00 31 1017.6
20260508151022 65 188 0.0 4.0 0.00 0.00 0.00 31 1017.7
20260508150519 66 241 2.0 4.0 0.00 0.00 0.00 36 1017.7
20260508150015 66 279 1.0 3.0 0.00 0.00 0.00 34 1017.8
20260508145512 66 290 0.0 2.0 0.00 0.00 0.00 36 1017.6
20260508145008 64 123 1.0 2.0 0.00 0.00 0.00 35 1017.9
20260508144506 63 131 0.0 2.0 0.00 0.00 0.00 36 1017.8
20260508144003 63 110 2.0 4.0 0.00 0.00 0.00 35 1017.9
20260508143500 62 148 2.0 4.0 0.00 0.00 0.00 38 1017.9
20260508142956 62 106 2.0 3.0 0.00 0.00 0.00 38 1018.0
20260508142454 62 171 0.0 2.0 0.00 0.00 0.00 39 1018.0
20260508141950 62 215 0.0 2.0 0.00 0.00 0.00 42 1018.0
20260508141447 61 178 0.0 1.0 0.00 0.00 0.00 42 1018.0
20260508140945 60 88 2.0 2.0 0.00 0.00 0.00 39 1018.0
20260508140441 61 102 2.0 4.0 0.00 0.00 0.00 41 1018.1
20260508135937 60 100 1.0 2.0 0.00 0.00 0.00 43 1018.0
20260508135434 61 115 2.0 3.0 0.00 0.00 0.00 41 1018.0
20260508134930 61 311 2.0 2.0 0.00 0.00 0.00 40 1018.3
20260508134427 60 281 1.0 1.0 0.00 0.00 0.00 47 1018.2
20260508133923 60 201 0.0 1.0 0.00 0.00 0.00 50 1018.4
20260508133421 60 321 0.0 2.0 0.00 0.00 0.00 50 1018.1
20260508132918 59 65 0.0 3.0 0.00 0.00 0.00 46 1018.2
20260508132416 58 116 2.0 3.0 0.00 0.00 0.00 52 1018.3
20260508131912 58 239 0.0 2.0 0.00 0.00 0.00 51 1018.2
20260508131408 58 50 0.0 1.0 0.00 0.00 0.00 55 1018.5
20260508130905 57 150 0.0 2.0 0.00 0.00 0.00 58 1018.3
20260508130401 58 343 0.0 1.0 0.00 0.00 0.00 57 1018.4
20260508125857 60 110 0.0 1.0 0.00 0.00 0.00 60 1018.3
20260508125353 59 223 0.0 0.0 0.00 0.00 0.00 60 1018.3
20260508124852 57 98 1.0 2.0 0.00 0.00 0.00 63 1018.2
20260508124349 55 126 1.0 2.0 0.00 0.00 0.00 64 1018.5
20260508123847 53 119 1.0 3.0 0.00 0.00 0.00 68 1018.4
20260508123345 53 116 2.0 2.0 0.00 0.00 0.00 72 1018.3
20260508122841 52 113 1.0 1.0 0.00 0.00 0.00 71 1018.3
20260508122338 52 113 1.0 2.0 0.00 0.00 0.00 71 1018.3
20260508121835 53 99 1.0 3.0 0.00 0.00 0.00 69 1018.1
20260508121334 54 139 0.0 2.0 0.00 0.00 0.00 69 1018.2
20260508120831 53 117 2.0 3.0 0.00 0.00 0.00 69 1018.2
20260508120329 53 125 1.0 2.0 0.00 0.00 0.00 65 1018.0
20260508115826 51 314 0.0 0.0 0.00 0.00 0.00 67 1018.1
20260508115323 49 250 0.0 0.0 0.00 0.00 0.00 72 1018.0
20260508114820 48 13 0.0 1.0 0.00 0.00 0.00 73 1017.9
20260508114317 47 78 0.0 1.0 0.00 0.00 0.00 75 1017.8
20260508113813 47 32 0.0 0.0 0.00 0.00 0.00 78 1017.9
20260508113312 46 87 0.0 1.0 0.00 0.00 0.00 78 1017.8
20260508112808 45 336 0.0 1.0 0.00 0.00 0.00 82 1017.9
20260508112307 44 70 0.0 0.0 0.00 0.00 0.00 84 1017.7
20260508111801 44 31 0.0 1.0 0.00 0.00 0.00 85 1017.6
20260508111259 44 4 0.0 2.0 0.00 0.00 0.00 85 1017.6
20260508110756 43 65 0.0 0.0 0.00 0.00 0.00 86 1017.9
20260508110253 43 134 0.0 0.0 0.00 0.00 0.00 86 1017.5
20260508105747 43 185 0.0 1.0 0.00 0.00 0.00 86 1017.3
20260508105244 43 110 0.0 2.0 0.00 0.00 0.00 86 1017.3
20260508104741 42 320 0.0 2.0 0.00 0.00 0.00 86 1017.3
20260508104238 42 134 0.0 2.0 0.00 0.00 0.00 86 1017.2
20260508103736 42 357 0.0 1.0 0.00 0.00 0.00 86 1017.1
20260508103232 42 277 0.0 1.0 0.00 0.00 0.00 87 1017.0
20260508102729 42 256 0.0 0.0 0.00 0.00 0.00 87 1016.9
20260508102227 41 304 0.0 0.0 0.00 0.00 0.00 87 1016.9
20260508101724 42 123 0.0 1.0 0.00 0.00 0.00 87 1016.7
20260508101223 42 208 0.0 2.0 0.00 0.00 0.00 86 1016.7
20260508100720 42 250 0.0 1.0 0.00 0.00 0.00 86 1016.7
20260508100218 42 110 0.0 1.0 0.00 0.00 0.00 86 1016.4
20260508095714 42 43 0.0 1.0 0.00 0.00 0.00 85 1016.4
20260508095212 42 110 0.0 1.0 0.00 0.00 0.00 85 1016.4
20260508094708 42 110 0.0 0.0 0.00 0.00 0.00 85 1016.3
20260508094205 42 152 0.0 1.0 0.00 0.00 0.00 84 1016.1
20260508093702 42 112 0.0 1.0 0.00 0.00 0.00 84 1016.2
20260508093200 42 65 0.0 2.0 0.00 0.00 0.00 84 1016.2
20260508092657 42 178 1.0 1.0 0.00 0.00 0.00 84 1016.3
20260508092155 42 336 0.0 0.0 0.00 0.00 0.00 85 1016.2
20260508091652 42 137 0.0 0.0 0.00 0.00 0.00 85 1016.0
20260508091149 43 81 1.0 2.0 0.00 0.00 0.00 86 1016.0
20260508090647 43 160 1.0 2.0 0.00 0.00 0.00 86 1016.1
20260508090143 43 87 0.0 1.0 0.00 0.00 0.00 86 1015.9
20260508085639 42 323 0.0 1.0 0.00 0.00 0.00 87 1016.1
20260508085137 42 36 0.0 1.0 0.00 0.00 0.00 87 1015.9
20260508084633 42 327 0.0 2.0 0.00 0.00 0.00 88 1016.1
20260508084130 42 90 0.0 1.0 0.00 0.00 0.00 88 1016.0
20260508083627 43 350 0.0 1.0 0.00 0.00 0.00 89 1016.2
20260508083125 42 290 0.0 1.0 0.00 0.00 0.00 89 1015.9
20260508082620 42 325 0.0 0.0 0.00 0.00 0.00 90 1015.8
20260508082118 43 332 0.0 0.0 0.00 0.00 0.00 90 1015.7
20260508081615 43 342 0.0 0.0 0.00 0.00 0.00 90 1015.8
20260508081111 43 347 0.0 0.0 0.00 0.00 0.00 90 1015.7
20260508080609 43 70 0.0 0.0 0.00 0.00 0.00 90 1015.4
20260508080107 43 70 0.0 0.0 0.00 0.00 0.00 91 1015.5
20260508075603 44 70 0.0 1.0 0.00 0.00 0.00 91 1015.3
20260508075100 43 89 1.0 1.0 0.00 0.00 0.00 91 1015.3
20260508074558 43 43 0.0 0.0 0.00 0.00 0.00 91 1015.5
20260508074054 43 43 0.0 0.0 0.00 0.00 0.00 91 1015.4
20260508073552 43 110 0.0 0.0 0.00 0.00 0.00 91 1015.3
20260508073049 44 110 0.0 0.0 0.00 0.00 0.00 91 1015.4
20260508072545 44 110 0.0 1.0 0.00 0.00 0.00 91 1015.4
20260508072042 44 87 0.0 1.0 0.00 0.00 0.00 91 1015.4
20260508071540 44 156 0.0 0.0 0.00 0.00 0.00 91 1015.4
20260508071038 44 171 0.0 0.0 0.00 0.00 0.00 91 1015.0
20260508070535 44 43 0.0 0.0 0.00 0.00 0.00 91 1015.1
20260508070033 44 43 0.0 0.0 0.00 0.00 0.00 91 1015.1
20260508065531 44 43 0.0 1.0 0.00 0.00 0.00 91 1015.1
20260508065029 44 84 0.0 1.0 0.00 0.00 0.00 91 1015.2
20260508064526 44 60 1.0 1.0 0.00 0.00 0.00 91 1015.2
20260508064024 44 76 0.0 0.0 0.00 0.00 0.00 91 1015.1
20260508063521 44 156 0.0 1.0 0.00 0.00 0.00 91 1014.9